QPF
0.00 0.04 0.15 0.23 0.24 0.24 0.16 0.09 0.02 0.02 0.01 0.00 0.00 0.01 0.07 0.17 0.22 0.21 0.14 0.04 0.01 0.02 0.03 0.02 0.03 0.03 0.03 0.04 0.05 0.04 0.03 0.03 0.03 0.03 0.02 0.02 0.02 0.02 0.01 0.01 0.00 0.00 0.01 0.01 0.00 0.00 0.00 0.00 0.02
0.04 0.11 0.17 0.21 0.29 0.26 0.21 0.10 0.03 0.02 0.01 0.00 0.00 0.01 0.05 0.06 0.06 0.10 0.11 0.04 0.02 0.03 0.03 0.07 0.09 0.06 0.06 0.05 0.05 0.05 0.05 0.05 0.05 0.04 0.03 0.03 0.03 0.02 0.01 0.01 0.00 0.00 0.01 0.01 0.00 0.00 0.00 0.00 0.01
0.09 0.11 0.14 0.21 0.21 0.21 0.20 0.09 0.03 0.00 0.00 0.00 0.00 0.01 0.03 0.06 0.07 0.14 0.14 0.05 0.02 0.02 0.04 0.09 0.09 0.07 0.07 0.07 0.07 0.07 0.06 0.06 0.05 0.05 0.04 0.05 0.04 0.03 0.01 0.01 0.00 0.00 0.00 0.01 0.00 0.00 0.00 0.00 0.00
0.09 0.10 0.15 0.20 0.15 0.10 0.07 0.04 0.00 0.01 0.00 0.00 0.01 0.02 0.02 0.04 0.08 0.14 0.09 0.04 0.04 0.05 0.06 0.08 0.05 0.05 0.06 0.07 0.07 0.07 0.07 0.06 0.05 0.06 0.06 0.06 0.05 0.04 0.03 0.02 0.01 0.01 0.01 0.01 0.01 0.00 0.00 0.00 0.00
0.07 0.14 0.25 0.19 0.13 0.05 0.01 0.00 0.00 0.01 0.01 0.00 0.01 0.03 0.05 0.07 0.05 0.06 0.05 0.05 0.07 0.09 0.08 0.06 0.03 0.03 0.05 0.06 0.07 0.07 0.06 0.06 0.07 0.07 0.07 0.07 0.07 0.06 0.06 0.05 0.04 0.02 0.01 0.01 0.01 0.01 0.00 0.00 0.00
0.11 0.14 0.25 0.20 0.12 0.03 0.01 0.00 0.00 0.01 0.01 0.00 0.01 0.04 0.05 0.07 0.06 0.04 0.03 0.04 0.05 0.05 0.05 0.05 0.03 0.02 0.03 0.04 0.05 0.06 0.06 0.06 0.07 0.07 0.08 0.07 0.07 0.08 0.08 0.07 0.05 0.03 0.02 0.01 0.01 0.01 0.00 0.00 0.00
0.12 0.13 0.12 0.10 0.09 0.05 0.01 0.00 0.00 0.01 0.01 0.01 0.01 0.05 0.05 0.04 0.03 0.02 0.02 0.03 0.03 0.02 0.03 0.03 0.03 0.04 0.04 0.04 0.04 0.05 0.06 0.06 0.06 0.06 0.08 0.08 0.07 0.07 0.07 0.07 0.06 0.05 0.04 0.02 0.02 0.01 0.01 0.00 0.00
0.04 0.05 0.08 0.06 0.06 0.07 0.01 0.00 0.00 0.00 0.00 0.00 0.00 0.04 0.03 0.02 0.01 0.01 0.02 0.02 0.02 0.02 0.02 0.02 0.02 0.03 0.03 0.04 0.05 0.05 0.05 0.05 0.06 0.06 0.07 0.08 0.07 0.07 0.08 0.08 0.08 0.07 0.07 0.06 0.04 0.02 0.02 0.01 0.00
0.00 0.08 0.18 0.16 0.06 0.03 0.00 0.00 0.00 0.00 0.00 0.00 0.00 0.00 0.01 0.01 0.00 0.00 0.01 0.01 0.01 0.01 0.01 0.01 0.01 0.02 0.02 0.02 0.03 0.04 0.04 0.04 0.04 0.05 0.07 0.08 0.09 0.11 0.14 0.12 0.14 0.14 0.14 0.10 0.07 0.04 0.02 0.01 0.01
0.01 0.09 0.17 0.12 0.02 0.00 0.00 0.00 0.00 0.00 0.01 0.01 0.00 0.00 0.00 0.00 0.00 0.00 0.00 0.00 0.01 0.01 0.01 0.01 0.01 0.02 0.03 0.03 0.04 0.04 0.03 0.04 0.05 0.06 0.09 0.12 0.15 0.17 0.16 0.18 0.19 0.18 0.17 0.13 0.11 0.10 0.05 0.02 0.01
0.02 0.02 0.03 0.02 0.00 0.00 0.00 0.00 0.00 0.01 0.03 0.01 0.00 0.00 0.01 0.01 0.00 0.00 0.00 0.00 0.00 0.00 0.00 0.00 0.00 0.00 0.01 0.02 0.03 0.04 0.04 0.04 0.05 0.07 0.08 0.10 0.12 0.14 0.18 0.21 0.21 0.21 0.21 0.19 0.21 0.18 0.11 0.08 0.04
0.03 0.01 0.00 0.00 0.00 0.00 0.00 0.00 0.00 0.00 0.01 0.00 0.00 0.00 0.01 0.01 0.00 0.00 0.00 0.00 0.00 0.00 0.00 0.00 0.00 0.00 0.00 0.00 0.01 0.02 0.02 0.03 0.04 0.05 0.06 0.08 0.10 0.11 0.15 0.20 0.22 0.25 0.25 0.28 0.33 0.31 0.25 0.15 0.09
0.06 0.04 0.01 0.00 0.00 0.00 0.00 0.00 0.00 0.00 0.00 0.00 0.00 0.00 0.00 0.00 0.00 0.00 0.00 0.00 0.00 0.00 0.00 0.00 0.00 0.00 0.00 0.00 0.00 0.00 0.00 0.01 0.02 0.03 0.04 0.05 0.08 0.09 0.12 0.13 0.18 0.22 0.21 0.23 0.25 0.26 0.23 0.19 0.13
0.09 0.08 0.01 0.00 0.00 0.00 0.00 0.00 0.00 0.00 0.00 0.00 0.00 0.00 0.00 0.00 0.00 0.00 0.00 0.00 0.00 0.00 0.00 0.00 0.00 0.00 0.00 0.00 0.00 0.00 0.00 0.00 0.00 0.02 0.03 0.04 0.06 0.07 0.10 0.13 0.16 0.21 0.23 0.23 0.23 0.22 0.22 0.23 0.16
0.01 0.01 0.00 0.01 0.00 0.00 0.00 0.01 0.00 0.00 0.00 0.00 0.00 0.00 0.00 0.00 0.00 0.00 0.00 0.00 0.00 0.00 0.00 0.00 0.00 0.00 0.00 0.00 0.00 0.00 0.00 0.00 0.00 0.00 0.01 0.02 0.04 0.06 0.08 0.11 0.14 0.17 0.19 0.20 0.22 0.24 0.26 0.26 0.24
0.01 0.01 0.03 0.03 0.03 0.03 0.01 0.01 0.00 0.00 0.00 0.00 0.00 0.00 0.00 0.00 0.00 0.00 0.00 0.00 0.00 0.00 0.00 0.00 0.00 0.00 0.00 0.00 0.00 0.00 0.00 0.00 0.00 0.00 0.00 0.01 0.01 0.02 0.05 0.07 0.10 0.14 0.18 0.21 0.21 0.22 0.27 0.29 0.29
0.03 0.06 0.09 0.07 0.03 0.02 0.00 0.00 0.00 0.00 0.00 0.00 0.00 0.00 0.00 0.00 0.00 0.00 0.00 0.00 0.00 0.00 0.00 0.00 0.00 0.00 0.00 0.00 0.00 0.00 0.01 0.01 0.01 0.01 0.01 0.01 0.01 0.01 0.03 0.06 0.07 0.10 0.15 0.17 0.17 0.21 0.26 0.31 0.31
0.05 0.11 0.11 0.06 0.02 0.01 0.00 0.00 0.00 0.00 0.00 0.00 0.00 0.00 0.00 0.00 0.00 0.00 0.00 0.00 0.00 0.00 0.00 0.00 0.00 0.00 0.00 0.01 0.01 0.01 0.03 0.03 0.03 0.03 0.03 0.02 0.02 0.01 0.02 0.03 0.04 0.07 0.10 0.15 0.18 0.24 0.27 0.28 0.31
0.05 0.03 0.02 0.01 0.00 0.00 0.00 0.00 0.00 0.00 0.00 0.00 0.00 0.00 0.00 0.00 0.00 0.00 0.00 0.00 0.00 0.00 0.00 0.00 0.00 0.00 0.00 0.01 0.01 0.01 0.03 0.04 0.04 0.04 0.03 0.02 0.02 0.02 0.02 0.02 0.03 0.05 0.07 0.10 0.14 0.19 0.22 0.26 0.31
0.04 0.01 0.00 0.00 0.00 0.00 0.00 0.00 0.00 0.00 0.00 0.00 0.00 0.00 0.00 0.00 0.00 0.00 0.00 0.00 0.00 0.00 0.00 0.00 0.00 0.00 0.00 0.01 0.00 0.01 0.02 0.03 0.04 0.05 0.05 0.04 0.03 0.03 0.02 0.02 0.04 0.05 0.06 0.06 0.09 0.14 0.16 0.18 0.26
0.01 0.00 0.00 0.00 0.00 0.00 0.00 0.00 0.00 0.00 0.00 0.00 0.00 0.00 0.00 0.00 0.00 0.00 0.00 0.00 0.00 0.00 0.00 0.00 0.00 0.00 0.00 0.00 0.00 0.00 0.01 0.03 0.04 0.04 0.05 0.04 0.04 0.05 0.04 0.03 0.04 0.04 0.06 0.06 0.07 0.10 0.12 0.13 0.19
0.00 0.00 0.00 0.00 0.00 0.00 0.00 0.00 0.00 0.00 0.00 0.00 0.00 0.00 0.00 0.00 0.00 0.00 0.00 0.00 0.00 0.00 0.00 0.00 0.00 0.00 0.00 0.00 0.00 0.01 0.01 0.01 0.02 0.03 0.05 0.05 0.05 0.05 0.04 0.04 0.04 0.05 0.06 0.07 0.07 0.08 0.11 0.12 0.12
0.00 0.00 0.00 0.00 0.00 0.00 0.00 0.00 0.00 0.00 0.00 0.00 0.00 0.00 0.00 0.00 0.00 0.00 0.00 0.00 0.00 0.00 0.00 0.00 0.00 0.00 0.00 0.00 0.00 0.01 0.01 0.00 0.01 0.02 0.03 0.03 0.03 0.03 0.03 0.03 0.03 0.04 0.06 0.06 0.06 0.07 0.09 0.10 0.10
0.00 0.00 0.00 0.00 0.00 0.00 0.00 0.00 0.00 0.00 0.00 0.00 0.00 0.00 0.00 0.00 0.00 0.00 0.00 0.00 0.00 0.00 0.00 0.00 0.00 0.00 0.00 0.00 0.00 0.00 0.00 0.00 0.00 0.00 0.01 0.01 0.02 0.02 0.02 0.02 0.02 0.02 0.03 0.04 0.05 0.05 0.06 0.08 0.10
0.00 0.00 0.00 0.00 0.00 0.00 0.00 0.00 0.00 0.00 0.00 0.00 0.00 0.00 0.00 0.00 0.00 0.00 0.00 0.00 0.00 0.00 0.00 0.00 0.00 0.00 0.00 0.00 0.00 0.00 0.00 0.00 0.00 0.00 0.00 0.01 0.01 0.02 0.02 0.02 0.03 0.02 0.02 0.02 0.03 0.04 0.05 0.07 0.09
0.00 0.00 0.00 0.00 0.00 0.00 0.00 0.00 0.00 0.00 0.00 0.00 0.00 0.00 0.00 0.00 0.00 0.00 0.00 0.00 0.00 0.00 0.00 0.00 0.00 0.00 0.00 0.00 0.00 0.00 0.00 0.00 0.00 0.00 0.00 0.00 0.01 0.01 0.02 0.02 0.03 0.03 0.03 0.03 0.03 0.03 0.05 0.05 0.07
0.00 0.00 0.00 0.00 0.00 0.00 0.00 0.00 0.00 0.00 0.00 0.00 0.00 0.00 0.00 0.00 0.00 0.00 0.00 0.00 0.00 0.00 0.00 0.00 0.00 0.00 0.00 0.00 0.00 0.00 0.00 0.00 0.00 0.00 0.00 0.00 0.00 0.00 0.00 0.01 0.02 0.03 0.03 0.03 0.03 0.03 0.04 0.05 0.07
0.00 0.00 0.00 0.00 0.00 0.00 0.00 0.00 0.00 0.00 0.00 0.00 0.00 0.00 0.00 0.00 0.00 0.00 0.00 0.00 0.00 0.00 0.00 0.00 0.00 0.00 0.00 0.00 0.00 0.00 0.00 0.00 0.00 0.00 0.00 0.00 0.00 0.00 0.00 0.00 0.00 0.01 0.01 0.01 0.01 0.02 0.04 0.05 0.06
0.00 0.00 0.00 0.00 0.00 0.00 0.00 0.00 0.00 0.00 0.00 0.00 0.00 0.00 0.00 0.00 0.00 0.00 0.00 0.00 0.00 0.00 0.00 0.00 0.00 0.00 0.00 0.00 0.00 0.00 0.00 0.00 0.00 0.00 0.00 0.00 0.00 0.00 0.00 0.00 0.00 0.00 0.00 0.01 0.01 0.02 0.03 0.03 0.05
0.00 0.00 0.00 0.00 0.00 0.00 0.00 0.00 0.00 0.00 0.00 0.00 0.00 0.00 0.00 0.00 0.00 0.00 0.00 0.00 0.00 0.00 0.00 0.00 0.00 0.00 0.00 0.00 0.00 0.00 0.00 0.00 0.00 0.00 0.00 0.00 0.00 0.00 0.00 0.00 0.00 0.00 0.00 0.01 0.01 0.01 0.02 0.02 0.02
MSLP
1011.10 1012.14 1013.22 1014.17 1014.83 1015.10 1014.98 1014.53 1013.89 1013.23 1012.73 1012.51 1012.59 1012.94 1013.43 1013.93 1014.29 1014.41 1014.27 1013.91 1013.45 1013.00 1012.67 1012.54 1012.64 1012.90 1013.26 1013.61 1013.88 1014.04 1014.07 1014.02 1013.94 1013.89 1013.91 1013.99 1014.13 1014.28 1014.41 1014.49 1014.50 1014.47 1014.42 1014.38 1014.36 1014.38 1014.42 1014.47 1014.50
1011.46 1012.60 1013.69 1014.55 1015.07 1015.16 1014.85 1014.23 1013.49 1012.80 1012.34 1012.20 1012.40 1012.86 1013.45 1014.02 1014.40 1014.52 1014.36 1013.98 1013.50 1013.05 1012.74 1012.64 1012.76 1013.05 1013.42 1013.78 1014.04 1014.18 1014.20 1014.14 1014.05 1013.98 1013.98 1014.04 1014.14 1014.25 1014.33 1014.36 1014.34 1014.29 1014.23 1014.21 1014.22 1014.27 1014.36 1014.44 1014.50
1011.90 1013.08 1014.14 1014.90 1015.26 1015.17 1014.69 1013.95 1013.14 1012.44 1012.02 1011.96 1012.25 1012.80 1013.45 1014.05 1014.45 1014.56 1014.39 1014.02 1013.55 1013.13 1012.85 1012.79 1012.94 1013.25 1013.62 1013.96 1014.20 1014.31 1014.30 1014.21 1014.10 1014.02 1013.99 1014.02 1014.09 1014.17 1014.22 1014.22 1014.17 1014.11 1014.06 1014.05 1014.09 1014.17 1014.29 1014.40 1014.48
1012.36 1013.54 1014.53 1015.17 1015.38 1015.14 1014.54 1013.73 1012.88 1012.21 1011.85 1011.86 1012.22 1012.81 1013.49 1014.09 1014.47 1014.56 1014.38 1014.02 1013.58 1013.21 1012.98 1012.97 1013.15 1013.46 1013.81 1014.12 1014.31 1014.37 1014.31 1014.18 1014.05 1013.94 1013.91 1013.93 1013.99 1014.05 1014.09 1014.08 1014.04 1013.98 1013.94 1013.95 1014.01 1014.11 1014.24 1014.37 1014.45
1012.77 1013.90 1014.79 1015.31 1015.40 1015.06 1014.39 1013.56 1012.74 1012.14 1011.85 1011.93 1012.34 1012.94 1013.60 1014.16 1014.49 1014.55 1014.36 1014.00 1013.61 1013.28 1013.11 1013.14 1013.34 1013.64 1013.95 1014.20 1014.32 1014.31 1014.20 1014.02 1013.86 1013.74 1013.70 1013.73 1013.81 1013.89 1013.94 1013.96 1013.94 1013.91 1013.90 1013.92 1013.99 1014.10 1014.23 1014.34 1014.41
1013.05 1014.09 1014.87 1015.27 1015.25 1014.86 1014.19 1013.41 1012.69 1012.19 1012.02 1012.17 1012.61 1013.20 1013.81 1014.29 1014.55 1014.55 1014.32 1013.98 1013.61 1013.33 1013.21 1013.27 1013.47 1013.75 1014.00 1014.17 1014.21 1014.12 1013.94 1013.72 1013.53 1013.41 1013.38 1013.43 1013.54 1013.66 1013.76 1013.83 1013.86 1013.87 1013.89 1013.94 1014.01 1014.11 1014.22 1014.29 1014.33
1013.15 1014.06 1014.70 1014.99 1014.91 1014.51 1013.91 1013.24 1012.67 1012.33 1012.28 1012.52 1012.98 1013.55 1014.08 1014.47 1014.63 1014.56 1014.30 1013.94 1013.60 1013.35 1013.27 1013.34 1013.54 1013.77 1013.95 1014.04 1013.99 1013.82 1013.57 1013.30 1013.09 1012.97 1012.96 1013.04 1013.19 1013.36 1013.52 1013.64 1013.73 1013.80 1013.86 1013.93 1014.01 1014.10 1014.17 1014.20 1014.19
1013.05 1013.80 1014.29 1014.48 1014.36 1014.00 1013.51 1013.00 1012.62 1012.46 1012.56 1012.90 1013.38 1013.92 1014.38 1014.66 1014.73 1014.58 1014.27 1013.90 1013.58 1013.36 1013.30 1013.37 1013.54 1013.72 1013.83 1013.84 1013.70 1013.46 1013.15 1012.84 1012.61 1012.48 1012.48 1012.59 1012.77 1012.99 1013.20 1013.38 1013.52 1013.64 1013.74 1013.84 1013.93 1014.00 1014.04 1014.03 1013.97
1012.76 1013.35 1013.70 1013.80 1013.67 1013.37 1013.01 1012.70 1012.52 1012.56 1012.81 1013.23 1013.75 1014.25 1014.64 1014.83 1014.81 1014.59 1014.25 1013.88 1013.56 1013.36 1013.31 1013.38 1013.51 1013.64 1013.69 1013.62 1013.41 1013.10 1012.75 1012.41 1012.16 1012.02 1012.02 1012.14 1012.33 1012.56 1012.80 1013.01 1013.20 1013.36 1013.50 1013.62 1013.72 1013.80 1013.82 1013.79 1013.69
1012.36 1012.80 1013.03 1013.06 1012.93 1012.71 1012.50 1012.36 1012.38 1012.59 1012.97 1013.48 1014.01 1014.49 1014.81 1014.94 1014.85 1014.59 1014.23 1013.87 1013.57 1013.39 1013.34 1013.40 1013.50 1013.58 1013.57 1013.44 1013.18 1012.83 1012.44 1012.08 1011.81 1011.65 1011.63 1011.72 1011.90 1012.12 1012.34 1012.56 1012.76 1012.95 1013.12 1013.27 1013.40 1013.49 1013.52 1013.49 1013.38
1011.96 1012.28 1012.42 1012.40 1012.29 1012.15 1012.05 1012.07 1012.24 1012.59 1013.07 1013.62 1014.16 1014.60 1014.88 1014.96 1014.84 1014.56 1014.22 1013.87 1013.60 1013.44 1013.41 1013.45 1013.53 1013.57 1013.51 1013.34 1013.05 1012.67 1012.27 1011.89 1011.60 1011.42 1011.36 1011.40 1011.52 1011.69 1011.88 1012.07 1012.26 1012.45 1012.63 1012.81 1012.98 1013.10 1013.17 1013.16 1013.08
1011.68 1011.92 1012.00 1011.97 1011.87 1011.79 1011.79 1011.91 1012.18 1012.59 1013.11 1013.67 1014.18 1014.59 1014.83 1014.88 1014.75 1014.50 1014.19 1013.90 1013.67 1013.54 1013.51 1013.55 1013.60 1013.61 1013.53 1013.33 1013.02 1012.64 1012.23 1011.85 1011.54 1011.33 1011.21 1011.19 1011.24 1011.33 1011.45 1011.58 1011.73 1011.91 1012.10 1012.31 1012.51 1012.69 1012.81 1012.86 1012.83
1011.59 1011.80 1011.87 1011.84 1011.77 1011.73 1011.78 1011.94 1012.23 1012.65 1013.14 1013.65 1014.11 1014.46 1014.67 1014.71 1014.61 1014.41 1014.16 1013.93 1013.75 1013.66 1013.65 1013.68 1013.71 1013.69 1013.58 1013.38 1013.07 1012.70 1012.31 1011.93 1011.61 1011.36 1011.19 1011.10 1011.06 1011.06 1011.09 1011.15 1011.26 1011.41 1011.60 1011.82 1012.07 1012.30 1012.49 1012.61 1012.65
1011.74 1011.97 1012.06 1012.05 1012.01 1011.99 1012.04 1012.18 1012.43 1012.77 1013.18 1013.59 1013.96 1014.25 1014.43 1014.48 1014.42 1014.28 1014.11 1013.95 1013.84 1013.79 1013.78 1013.81 1013.82 1013.78 1013.66 1013.46 1013.17 1012.82 1012.45 1012.09 1011.76 1011.49 1011.27 1011.11 1010.98 1010.90 1010.84 1010.84 1010.88 1010.99 1011.18 1011.41 1011.69 1011.97 1012.23 1012.42 1012.54
1012.10 1012.37 1012.49 1012.52 1012.50 1012.48 1012.50 1012.58 1012.73 1012.95 1013.22 1013.50 1013.77 1013.99 1014.14 1014.20 1014.20 1014.14 1014.06 1013.98 1013.92 1013.90 1013.90 1013.91 1013.90 1013.84 1013.71 1013.52 1013.25 1012.94 1012.60 1012.27 1011.95 1011.66 1011.41 1011.19 1011.00 1010.84 1010.71 1010.64 1010.64 1010.71 1010.87 1011.11 1011.40 1011.72 1012.03 1012.29 1012.48
1012.57 1012.88 1013.06 1013.12 1013.12 1013.09 1013.05 1013.04 1013.06 1013.13 1013.24 1013.39 1013.54 1013.69 1013.82 1013.91 1013.97 1013.99 1013.99 1013.99 1013.98 1013.98 1013.98 1013.97 1013.93 1013.86 1013.73 1013.54 1013.31 1013.04 1012.74 1012.44 1012.14 1011.85 1011.58 1011.32 1011.08 1010.87 1010.69 1010.57 1010.52 1010.57 1010.70 1010.92 1011.21 1011.54 1011.87 1012.18 1012.42
1013.03 1013.38 1013.60 1013.70 1013.71 1013.66 1013.56 1013.45 1013.34 1013.26 1013.22 1013.23 1013.29 1013.38 1013.50 1013.63 1013.76 1013.86 1013.94 1013.99 1014.02 1014.03 1014.02 1013.98 1013.92 1013.82 1013.70 1013.54 1013.34 1013.11 1012.86 1012.60 1012.33 1012.04 1011.76 1011.49 1011.22 1010.97 1010.76 1010.61 1010.53 1010.54 1010.64 1010.83 1011.10 1011.42 1011.75 1012.07 1012.34
1013.38 1013.74 1013.98 1014.11 1014.14 1014.07 1013.92 1013.72 1013.50 1013.29 1013.12 1013.02 1013.01 1013.07 1013.20 1013.38 1013.57 1013.75 1013.90 1014.00 1014.06 1014.06 1014.03 1013.97 1013.88 1013.77 1013.65 1013.52 1013.36 1013.19 1012.99 1012.76 1012.51 1012.24 1011.96 1011.67 1011.39 1011.13 1010.91 1010.74 1010.64 1010.62 1010.69 1010.83 1011.06 1011.33 1011.63 1011.94 1012.22
1013.52 1013.88 1014.14 1014.29 1014.33 1014.26 1014.08 1013.82 1013.51 1013.21 1012.95 1012.77 1012.71 1012.77 1012.93 1013.16 1013.42 1013.67 1013.88 1014.02 1014.09 1014.08 1014.03 1013.94 1013.83 1013.72 1013.62 1013.52 1013.41 1013.29 1013.13 1012.95 1012.72 1012.46 1012.18 1011.89 1011.60 1011.33 1011.10 1010.93 1010.81 1010.77 1010.79 1010.90 1011.06 1011.27 1011.52 1011.79 1012.05
1013.45 1013.79 1014.06 1014.24 1014.31 1014.25 1014.06 1013.77 1013.41 1013.04 1012.72 1012.51 1012.43 1012.49 1012.69 1012.98 1013.31 1013.62 1013.88 1014.05 1014.12 1014.10 1014.03 1013.92 1013.80 1013.70 1013.62 1013.56 1013.51 1013.43 1013.33 1013.18 1012.97 1012.72 1012.43 1012.13 1011.84 1011.56 1011.33 1011.15 1011.03 1010.96 1010.95 1010.99 1011.09 1011.23 1011.41 1011.62 1011.84
1013.22 1013.55 1013.84 1014.05 1014.16 1014.12 1013.94 1013.64 1013.26 1012.85 1012.50 1012.26 1012.18 1012.26 1012.50 1012.83 1013.22 1013.58 1013.88 1014.07 1014.14 1014.12 1014.03 1013.91 1013.79 1013.71 1013.67 1013.65 1013.65 1013.63 1013.57 1013.44 1013.25 1013.00 1012.70 1012.39 1012.08 1011.80 1011.57 1011.39 1011.26 1011.17 1011.12 1011.11 1011.14 1011.20 1011.29 1011.43 1011.60
1012.92 1013.26 1013.59 1013.85 1014.01 1014.02 1013.86 1013.56 1013.16 1012.73 1012.35 1012.09 1012.00 1012.09 1012.34 1012.72 1013.14 1013.54 1013.86 1014.07 1014.15 1014.12 1014.02 1013.90 1013.80 1013.74 1013.73 1013.77 1013.81 1013.84 1013.82 1013.72 1013.54 1013.28 1012.97 1012.64 1012.32 1012.03 1011.79 1011.61 1011.47 1011.37 1011.30 1011.24 1011.19 1011.17 1011.18 1011.24 1011.34
1012.68 1013.06 1013.44 1013.77 1013.98 1014.03 1013.90 1013.60 1013.18 1012.72 1012.30 1012.01 1011.89 1011.97 1012.22 1012.61 1013.05 1013.47 1013.81 1014.03 1014.11 1014.09 1013.99 1013.88 1013.79 1013.75 1013.78 1013.86 1013.95 1014.02 1014.03 1013.95 1013.78 1013.52 1013.20 1012.85 1012.52 1012.22 1011.98 1011.80 1011.66 1011.55 1011.45 1011.35 1011.24 1011.15 1011.07 1011.05 1011.08
1012.58 1013.02 1013.48 1013.87 1014.14 1014.23 1014.11 1013.80 1013.35 1012.84 1012.37 1012.02 1011.85 1011.89 1012.12 1012.50 1012.94 1013.37 1013.71 1013.94 1014.03 1014.02 1013.93 1013.82 1013.74 1013.73 1013.78 1013.89 1014.02 1014.12 1014.16 1014.10 1013.93 1013.66 1013.34 1012.98 1012.65 1012.35 1012.11 1011.93 1011.80 1011.68 1011.57 1011.43 1011.28 1011.12 1010.97 1010.86 1010.81
1012.65 1013.17 1013.70 1014.16 1014.47 1014.59 1014.47 1014.13 1013.64 1013.06 1012.52 1012.09 1011.86 1011.84 1012.02 1012.37 1012.79 1013.22 1013.57 1013.80 1013.90 1013.89 1013.81 1013.71 1013.65 1013.64 1013.71 1013.84 1013.98 1014.10 1014.16 1014.11 1013.95 1013.70 1013.37 1013.02 1012.69 1012.40 1012.17 1012.00 1011.88 1011.77 1011.65 1011.49 1011.31 1011.09 1010.88 1010.69 1010.57
1012.86 1013.45 1014.04 1014.54 1014.89 1015.00 1014.87 1014.50 1013.94 1013.30 1012.68 1012.18 1011.87 1011.78 1011.91 1012.22 1012.62 1013.03 1013.38 1013.62 1013.73 1013.74 1013.66 1013.57 1013.50 1013.50 1013.57 1013.69 1013.84 1013.97 1014.03 1013.99 1013.85 1013.61 1013.30 1012.97 1012.65 1012.38 1012.17 1012.02 1011.91 1011.81 1011.69 1011.53 1011.33 1011.07 1010.81 1010.56 1010.36
1013.13 1013.76 1014.38 1014.90 1015.24 1015.34 1015.18 1014.77 1014.17 1013.47 1012.78 1012.22 1011.84 1011.70 1011.78 1012.04 1012.42 1012.82 1013.17 1013.42 1013.54 1013.55 1013.49 1013.40 1013.32 1013.31 1013.36 1013.47 1013.61 1013.73 1013.80 1013.77 1013.65 1013.43 1013.16 1012.85 1012.56 1012.31 1012.12 1011.99 1011.90 1011.82 1011.71 1011.56 1011.34 1011.08 1010.78 1010.48 1010.22
1013.36 1013.99 1014.59 1015.09 1015.41 1015.48 1015.28 1014.84 1014.21 1013.48 1012.77 1012.17 1011.76 1011.58 1011.62 1011.86 1012.21 1012.60 1012.95 1013.21 1013.34 1013.37 1013.31 1013.22 1013.13 1013.10 1013.13 1013.22 1013.33 1013.45 1013.51 1013.50 1013.40 1013.22 1012.98 1012.71 1012.45 1012.23 1012.07 1011.96 1011.89 1011.83 1011.74 1011.59 1011.38 1011.11 1010.79 1010.47 1010.17
1013.46 1014.04 1014.58 1015.02 1015.28 1015.31 1015.09 1014.64 1014.01 1013.30 1012.60 1012.01 1011.60 1011.41 1011.45 1011.67 1012.01 1012.39 1012.74 1013.00 1013.14 1013.18 1013.13 1013.04 1012.95 1012.90 1012.91 1012.97 1013.07 1013.17 1013.24 1013.24 1013.17 1013.02 1012.82 1012.59 1012.37 1012.18 1012.04 1011.95 1011.89 1011.84 1011.77 1011.64 1011.44 1011.18 1010.87 1010.53 1010.21
1013.38 1013.86 1014.31 1014.66 1014.85 1014.83 1014.60 1014.17 1013.58 1012.93 1012.29 1011.75 1011.39 1011.23 1011.27 1011.49 1011.82 1012.19 1012.53 1012.78 1012.94 1012.98 1012.94 1012.86 1012.77 1012.71 1012.71 1012.76 1012.85 1012.94 1013.02 1013.04 1012.99 1012.88 1012.72 1012.53 1012.34 1012.18 1012.06 1011.98 1011.92 1011.88 1011.81 1011.69 1011.52 1011.27 1010.97 1010.64 1010.30
Thickness
5818 5817 5814 5799 5778 5766 5766 5781 5793 5794 5800 5810 5811 5803 5788 5778 5770 5757 5781 5795 5796 5792 5787 5782 5779 5777 5775 5773 5772 5770 5769 5768 5767 5766 5765 5763 5763 5762 5761 5761 5761 5760 5760 5760 5760 5760 5760 5760 5761
5822 5820 5807 5790 5767 5754 5761 5784 5790 5796 5806 5813 5811 5802 5789 5780 5783 5779 5783 5790 5793 5790 5785 5780 5776 5773 5772 5770 5769 5768 5767 5766 5765 5764 5763 5762 5762 5761 5761 5760 5760 5759 5759 5758 5758 5758 5758 5758 5759
5824 5820 5798 5783 5769 5763 5768 5787 5795 5805 5813 5810 5802 5795 5782 5773 5778 5778 5783 5789 5789 5784 5779 5775 5772 5770 5768 5767 5766 5765 5764 5764 5763 5763 5762 5761 5761 5760 5760 5759 5759 5758 5758 5757 5757 5756 5756 5756 5757
5820 5808 5796 5780 5771 5784 5789 5795 5802 5801 5806 5809 5800 5783 5775 5778 5778 5779 5784 5785 5782 5778 5774 5770 5768 5766 5765 5764 5763 5762 5761 5761 5761 5761 5761 5760 5760 5759 5759 5758 5758 5758 5757 5757 5756 5755 5755 5755 5755
5817 5798 5777 5767 5774 5790 5800 5804 5804 5795 5796 5799 5794 5773 5765 5776 5781 5781 5780 5778 5775 5772 5770 5766 5764 5763 5761 5760 5759 5758 5758 5758 5758 5759 5759 5759 5759 5758 5758 5758 5757 5757 5756 5756 5755 5755 5754 5754 5754
5803 5796 5767 5758 5773 5789 5798 5805 5802 5793 5793 5794 5788 5771 5761 5774 5775 5775 5775 5772 5770 5767 5765 5762 5760 5759 5757 5756 5755 5755 5754 5754 5755 5756 5756 5757 5757 5757 5757 5757 5756 5756 5755 5755 5755 5754 5753 5753 5753
5797 5791 5777 5772 5773 5780 5793 5803 5795 5789 5785 5786 5788 5767 5759 5767 5771 5773 5771 5768 5765 5763 5760 5758 5756 5755 5753 5752 5751 5751 5750 5751 5751 5753 5754 5754 5755 5755 5755 5755 5755 5755 5755 5754 5754 5753 5753 5753 5753
5812 5797 5775 5769 5775 5777 5796 5799 5795 5789 5781 5790 5787 5763 5753 5761 5769 5768 5766 5763 5760 5758 5755 5753 5752 5750 5749 5748 5748 5747 5746 5747 5748 5749 5750 5751 5752 5753 5753 5753 5753 5754 5753 5753 5752 5752 5752 5752 5752
5817 5789 5760 5764 5775 5783 5796 5791 5790 5793 5783 5778 5774 5766 5762 5765 5765 5760 5755 5753 5751 5750 5749 5747 5745 5744 5743 5743 5743 5742 5742 5743 5744 5745 5746 5747 5749 5750 5750 5751 5752 5752 5752 5752 5751 5751 5751 5752 5752
5809 5778 5767 5783 5792 5791 5792 5788 5785 5781 5769 5764 5761 5762 5763 5761 5756 5750 5745 5741 5739 5739 5739 5739 5738 5737 5737 5737 5737 5737 5737 5738 5738 5740 5741 5743 5744 5745 5747 5748 5749 5750 5750 5749 5750 5750 5751 5751 5753
5804 5788 5792 5796 5800 5797 5789 5785 5785 5773 5758 5759 5754 5753 5755 5752 5748 5743 5739 5736 5734 5733 5731 5731 5730 5729 5729 5729 5730 5729 5730 5731 5733 5735 5737 5738 5740 5741 5742 5744 5745 5746 5747 5747 5748 5748 5749 5751 5754
5799 5799 5802 5799 5798 5794 5787 5783 5776 5769 5761 5766 5760 5755 5750 5745 5740 5737 5733 5731 5730 5727 5725 5725 5722 5721 5721 5721 5721 5722 5724 5726 5727 5729 5731 5733 5735 5736 5738 5740 5741 5742 5743 5744 5745 5746 5747 5750 5753
5790 5791 5797 5798 5795 5792 5787 5778 5770 5763 5765 5763 5757 5750 5744 5740 5736 5735 5733 5729 5727 5723 5721 5719 5716 5714 5714 5714 5714 5716 5718 5720 5721 5722 5724 5726 5729 5730 5733 5736 5737 5739 5740 5741 5742 5743 5744 5747 5751
5785 5784 5789 5792 5789 5786 5776 5771 5766 5759 5761 5755 5749 5744 5742 5736 5732 5730 5728 5724 5722 5719 5717 5715 5712 5710 5708 5708 5707 5709 5711 5712 5714 5716 5718 5720 5723 5726 5728 5731 5733 5735 5737 5738 5739 5740 5741 5744 5747
5801 5787 5784 5784 5781 5778 5771 5759 5762 5762 5758 5749 5745 5743 5738 5735 5732 5729 5726 5722 5719 5716 5714 5711 5709 5706 5703 5702 5701 5703 5704 5706 5707 5710 5712 5714 5717 5720 5723 5725 5728 5731 5733 5735 5735 5736 5737 5739 5742
5789 5777 5761 5770 5770 5768 5756 5743 5758 5760 5753 5745 5743 5742 5737 5734 5734 5732 5727 5721 5717 5713 5710 5709 5707 5702 5699 5698 5697 5698 5699 5699 5700 5702 5704 5707 5710 5713 5716 5718 5721 5725 5728 5730 5730 5732 5731 5734 5736
5767 5747 5740 5748 5766 5765 5756 5747 5754 5760 5752 5744 5743 5742 5738 5736 5735 5731 5726 5720 5715 5711 5708 5707 5704 5699 5697 5695 5695 5694 5694 5694 5695 5695 5697 5699 5702 5705 5709 5711 5716 5719 5722 5724 5726 5728 5728 5729 5731
5749 5741 5741 5748 5761 5763 5756 5754 5757 5758 5752 5746 5745 5742 5740 5736 5733 5730 5725 5720 5716 5712 5708 5706 5703 5698 5695 5692 5691 5690 5689 5689 5689 5689 5690 5692 5694 5698 5702 5705 5709 5712 5714 5716 5719 5722 5724 5725 5727
5752 5752 5753 5763 5771 5762 5755 5756 5759 5757 5751 5745 5744 5743 5740 5738 5737 5731 5726 5722 5716 5711 5707 5705 5701 5696 5693 5688 5685 5683 5682 5683 5684 5684 5685 5687 5689 5692 5695 5698 5701 5704 5706 5709 5713 5716 5717 5720 5723
5747 5753 5762 5770 5769 5761 5754 5756 5763 5760 5754 5750 5747 5745 5743 5739 5735 5730 5726 5721 5714 5710 5707 5704 5699 5695 5691 5687 5684 5682 5680 5680 5681 5680 5681 5682 5684 5686 5689 5691 5694 5698 5700 5702 5706 5709 5710 5714 5718
5758 5760 5759 5755 5763 5764 5752 5747 5756 5760 5759 5755 5751 5747 5745 5740 5733 5728 5723 5718 5714 5710 5706 5702 5698 5694 5690 5686 5683 5680 5678 5678 5676 5676 5677 5679 5681 5682 5683 5685 5688 5691 5694 5695 5699 5703 5704 5705 5711
5757 5764 5760 5754 5744 5744 5750 5727 5745 5754 5749 5749 5748 5746 5743 5740 5734 5728 5722 5717 5713 5710 5706 5701 5698 5693 5690 5686 5682 5677 5674 5672 5673 5675 5676 5678 5679 5679 5679 5680 5682 5685 5688 5690 5694 5698 5699 5700 5701
5758 5764 5758 5753 5745 5740 5748 5735 5743 5751 5743 5747 5749 5748 5745 5741 5735 5728 5723 5718 5715 5711 5707 5702 5698 5694 5690 5687 5683 5680 5676 5674 5675 5675 5675 5675 5677 5677 5676 5677 5678 5680 5682 5685 5688 5691 5694 5696 5697
5762 5757 5755 5752 5742 5727 5748 5739 5735 5746 5746 5748 5749 5749 5746 5742 5737 5731 5726 5721 5716 5713 5709 5705 5700 5696 5693 5689 5687 5683 5679 5677 5675 5674 5673 5673 5674 5674 5674 5674 5675 5676 5678 5680 5682 5685 5687 5690 5692
5755 5740 5727 5724 5720 5734 5754 5741 5741 5750 5755 5752 5748 5748 5746 5742 5737 5731 5726 5721 5717 5714 5710 5707 5703 5698 5696 5692 5689 5686 5683 5680 5677 5674 5673 5672 5672 5671 5671 5672 5672 5673 5674 5676 5678 5679 5681 5684 5686
5753 5746 5723 5715 5731 5740 5747 5741 5744 5760 5759 5757 5754 5751 5748 5743 5738 5733 5729 5724 5720 5717 5713 5709 5705 5701 5699 5696 5692 5689 5686 5682 5679 5677 5675 5673 5672 5672 5672 5671 5671 5672 5672 5673 5674 5674 5676 5679 5681
5747 5747 5754 5735 5739 5737 5748 5751 5748 5760 5757 5754 5752 5749 5746 5744 5740 5735 5732 5728 5724 5720 5716 5713 5709 5705 5703 5699 5695 5692 5688 5684 5681 5679 5677 5674 5673 5673 5672 5670 5670 5670 5670 5670 5670 5669 5671 5673 5674
5752 5747 5743 5732 5723 5725 5743 5744 5739 5745 5749 5752 5751 5748 5747 5746 5743 5739 5735 5730 5727 5724 5720 5718 5714 5710 5707 5703 5698 5695 5691 5688 5685 5682 5679 5676 5674 5673 5672 5670 5669 5668 5667 5666 5665 5664 5665 5666 5667
5741 5740 5740 5737 5737 5720 5718 5727 5755 5751 5752 5751 5752 5753 5750 5748 5744 5741 5737 5735 5731 5728 5725 5721 5718 5714 5709 5705 5701 5697 5694 5691 5688 5685 5682 5678 5676 5675 5672 5670 5667 5666 5664 5663 5660 5659 5659 5659 5660
5754 5748 5743 5725 5732 5737 5724 5727 5761 5759 5758 5756 5754 5755 5754 5751 5747 5743 5740 5737 5733 5730 5727 5724 5721 5717 5712 5708 5703 5700 5697 5694 5690 5686 5683 5680 5677 5674 5671 5669 5666 5664 5661 5659 5656 5654 5654 5653 5653